Weather in Mardarovka

Ukraine / Odesa District     47°32′24″N   29°44′04″E
temp.,
°C
wind,
m/s
gust,
m/s
humid.,
%
clouds,
%
prec.,
mm/h
press.,
hPa
HPBL,
m
11 may, tue
tue1100:00+10ene35650 0.0 102283
03:00+8ene22703 0.0 102218
06:00+7nne337263 0.0 102242
09:00+13n465612 0.0 1021501
12:00+17n45485 0.0 1019937
15:00+20n555150 0.0 10171149
18:00+20nne565725 0.0 10161494
21:00+14ne48845 0.3 1016148
12 may, wed
wed1200:00+14e4889100 0.0 1016391
03:00+12ene3587100 0.1 1015342
06:00+8ene49837 0.0 1015270
09:00+11ene677013 0.0 1015821
12:00+14ene545531 0.0 10141435
15:00+15ene645377 0.0 10131603
18:00+13ene555924 0.0 1013935
21:00+9e3573100 0.0 101390
13 may, thu
thu1300:00+9ese367490 0.0 1012135
03:00+8ese35807 0.0 101198
06:00+9ese4874100 0.0 1011290
09:00+12se5868100 0.0 1011521
12:00+17sse6861100 0.1 10101514
15:00+15se6879100 1.0 1010871
18:00+16sse6107274 0.4 1008762
21:00+12sse4108887 0.4 1009258
14 may, fri
fri1400:00+10sse49925 0.0 1009196
03:00+9sse349118 0.0 100957
06:00+9s3490100 0.0 100980
09:00+15ssw4577100 0.0 1009375
12:00+16ssw2375100 0.1 1010299
15:00+16sse1277100 1.7 1009317
18:00+17sse2379100 4.5 1009249
21:00+14ssw4988100 7.7 1009185
15 may, sat
sat1500:00+13ssw229498 0.2 100925
03:00+12w2291100 0.3 101021
06:00+12nw3692100 0.0 1011119
09:00+16nnw57715 0.0 1012545
12:00+20nnw444925 0.0 10131280
15:00+21nnw3244100 0.0 10121788
18:00+21n114624 0.0 10121723
21:00+15ese226835 0.0 101323